This is the latest recevied weather packets stored in our database for station/object K5YNC. If no packets are shown the sender has not sent any weather packets the latest 10 day(s).
| Time | Temp. | Humidity | Pressure | Rain* | Wind** | Luminosity | Snow |
|---|---|---|---|---|---|---|---|
| 1777293424 | 23.33° C | 86% | 1007.4 hPa | 0 mm | - | 43 W/m² | - |
| 1777293121 | 23.33° C | 86% | 1007.4 hPa | 0 mm | - | 37 W/m² | - |
| 1777292819 | 23.33° C | 86% | 1007.5 hPa | 0 mm | - | 32 W/m² | - |
| 1777292516 | 23.33° C | 86% | 1007.5 hPa | 0 mm | - | 27 W/m² | - |
| 1777292212 | 23.33° C | 86% | 1007.3 hPa | 0 mm | - | 22 W/m² | - |
| 1777291908 | 23.33° C | 86% | 1007.2 hPa | 0 mm | - | 17 W/m² | - |
| 1777291605 | 23.33° C | 86% | 1007 hPa | 0 mm | - | 12 W/m² | - |
| 1777291302 | 23.33° C | 86% | 1007 hPa | 0 mm | - | 9 W/m² | - |
| 1777290999 | 23.33° C | 85% | 1007 hPa | 0 mm | - | 7 W/m² | - |
| 1777290696 | 23.33° C | 85% | 1007.1 hPa | 0 mm | - | 5 W/m² | - |
| 1777290393 | 23.33° C | 85% | 1006.8 hPa | 0 mm | - | 3 W/m² | - |
| 1777290087 | 23.33° C | 85% | 1006.7 hPa | 0 mm | - | 1 W/m² | - |
| 1777289785 | 23.33° C | 85% | 1006.5 hPa | 0 mm | - | 1 W/m² | - |
| 1777289481 | 23.89° C | 85% | 1006.5 hPa | 0 mm | - | 0 W/m² | - |
| 1777289177 | 23.89° C | 85% | 1006.3 hPa | 0 mm | - | 0 W/m² | - |
| 1777288874 | 23.89° C | 85% | 1006.1 hPa | 0 mm | - | 0 W/m² | - |
| 1777288570 | 23.89° C | 84% | 1006.3 hPa | 0 mm | - | 0 W/m² | - |
| 1777288267 | 23.89° C | 84% | 1006.3 hPa | 0 mm | - | 0 W/m² | - |
| 1777287963 | 23.89° C | 84% | 1006.2 hPa | 0 mm | - | 0 W/m² | - |
| 1777287661 | 23.89° C | 84% | 1006.3 hPa | 0 mm | - | 0 W/m² | - |
| 1777287356 | 23.89° C | 84% | 1006 hPa | 0 mm | - | 0 W/m² | - |
| 1777287053 | 23.89° C | 83% | 1006.3 hPa | 0 mm | - | 0 W/m² | - |
| 1777286750 | 23.89° C | 83% | 1006.1 hPa | 0 mm | - | 0 W/m² | - |
| 1777286448 | 23.89° C | 84% | 1006 hPa | 0 mm | - | 0 W/m² | - |
| 1777286144 | 23.89° C | 83% | 1006.1 hPa | 0 mm | - | 0 W/m² | - |
* Rain latest hour (hover to see other rain measurements)
** Current wind speed in m/s (hover to see current wind gust speed)